Location: Castro Valley
(37.6940°N, 122.0850°W)
Time: 06:40:06
(UTC-07:00)

PANSAT - Visible Passes

Search period start: 01 May 2016 00:00
Search period end: 11 May 2016 00:00
Orbit: 479 x 487 km, 28.5° (Epoch: 30 April)

Date Brightness Start Highest point End Pass type
(mag) Time Alt. Az. Time Alt. Az. Time Alt. Az.
07 May 9.7 05:31:16 10° SSW 05:33:34 15° SSE 05:35:51 10° SE visible
08 May 9.6 05:02:58 12° SSW 05:04:46 16° SSE 05:07:06 10° SE visible
09 May 9.5 04:35:38 16° S 04:35:57 16° SSE 04:38:19 10° SE visible
10 May 9.8 04:08:19 14° SSE 04:08:19 14° SSE 04:09:33 10° SE visible
